Time,TemperatureF,DewpointF,PressureIn,WindDirection,WindDirectionDegrees,WindSpeedMPH,WindSpeedGustMPH,Humidity,HourlyPrecipIn,Conditions,Clouds,dailyrainin,SolarRadiationWatts/m^2,SoftwareType,DateUTC
2013-08-07 00:01:00,54.0,52.0,-100.00,SSW,203,1.0,4.0,92,0.00,,,0.00,0.000000,,2013-08-07 08:01:00,
2013-08-07 00:11:00,54.0,52.0,-100.00,SSW,203,1.0,4.0,92,0.00,,,0.00,0.000000,,2013-08-07 08:11:00,
2013-08-07 00:21:00,54.0,52.0,-100.00,SSW,203,1.0,4.0,92,0.00,,,0.00,0.000000,,2013-08-07 08:21:00,
2013-08-07 00:52:00,53.0,52.0,-100.00,South,178,1.0,3.0,95,0.00,,,-99.99,0.000000,,2013-08-07 08:52:00,
2013-08-07 01:01:00,53.0,52.0,-100.00,South,178,1.0,3.0,95,0.00,,,-99.99,0.000000,,2013-08-07 09:01:00,
2013-08-07 01:11:00,53.0,52.0,-100.00,South,178,1.0,3.0,95,0.00,,,-99.99,0.000000,,2013-08-07 09:11:00,
2013-08-07 01:21:00,53.0,52.0,-100.00,South,178,1.0,3.0,95,0.00,,,-99.99,0.000000,,2013-08-07 09:21:00,
2013-08-07 01:54:00,53.0,52.0,-100.00,South,172,1.0,4.0,96,0.00,,,0.00,0.000000,,2013-08-07 09:54:00,
2013-08-07 02:01:00,53.0,52.0,-100.00,South,172,1.0,4.0,96,0.00,,,0.00,0.000000,,2013-08-07 10:01:00,
2013-08-07 02:11:00,53.0,52.0,-100.00,South,172,1.0,4.0,96,0.00,,,0.00,0.000000,,2013-08-07 10:11:00,
2013-08-07 02:21:00,53.0,52.0,-100.00,South,172,1.0,4.0,96,0.00,,,0.00,0.000000,,2013-08-07 10:21:00,
2013-08-07 02:52:00,53.0,52.0,-100.00,SSE,162,2.0,4.0,98,0.01,,,0.01,0.000000,,2013-08-07 10:52:00,
2013-08-07 03:01:00,53.0,52.0,-100.00,SSE,162,2.0,4.0,98,0.01,,,0.01,0.000000,,2013-08-07 11:01:00,
2013-08-07 03:11:00,53.0,52.0,-100.00,SSE,162,2.0,4.0,98,0.01,,,0.01,0.000000,,2013-08-07 11:11:00,
2013-08-07 03:22:00,53.0,52.0,-100.00,SSE,162,2.0,4.0,98,0.01,,,0.01,0.000000,,2013-08-07 11:22:00,
2013-08-07 03:53:00,53.0,53.0,-100.00,South,176,2.0,4.0,100,0.00,,,0.01,0.000000,,2013-08-07 11:53:00,
2013-08-07 04:02:00,53.0,53.0,-100.00,South,176,2.0,4.0,100,0.00,,,0.01,0.000000,,2013-08-07 12:02:00,
2013-08-07 04:11:00,53.0,53.0,-100.00,South,176,2.0,4.0,100,0.00,,,0.01,0.000000,,2013-08-07 12:11:00,
2013-08-07 04:22:00,53.0,53.0,-100.00,South,176,2.0,4.0,100,0.00,,,0.01,0.000000,,2013-08-07 12:22:00,
2013-08-07 04:52:00,52.0,52.0,-100.00,West,275,1.0,4.0,100,0.00,,,0.01,0.000000,,2013-08-07 12:52:00,
2013-08-07 05:02:00,52.0,52.0,-100.00,West,275,1.0,4.0,100,0.00,,,0.01,0.000000,,2013-08-07 13:02:00,
2013-08-07 05:11:00,52.0,52.0,-100.00,West,275,1.0,4.0,100,0.00,,,0.01,0.000000,,2013-08-07 13:11:00,
2013-08-07 05:22:00,52.0,52.0,-100.00,West,275,1.0,4.0,100,0.00,,,0.01,0.000000,,2013-08-07 13:22:00,
2013-08-07 05:53:00,52.0,52.0,-100.00,South,182,2.0,4.0,100,0.00,,,0.01,0.000000,,2013-08-07 13:53:00,
2013-08-07 06:01:00,52.0,52.0,-100.00,South,182,2.0,4.0,100,0.00,,,0.01,0.000000,,2013-08-07 14:01:00,
2013-08-07 06:11:00,52.0,52.0,-100.00,South,182,2.0,4.0,100,0.00,,,0.01,0.000000,,2013-08-07 14:11:00,
2013-08-07 06:22:00,52.0,52.0,-100.00,South,182,2.0,4.0,100,0.00,,,0.01,0.000000,,2013-08-07 14:22:00,
2013-08-07 07:02:00,52.0,52.0,-100.00,North,354,1.0,3.0,100,0.02,,,0.03,1.000000,,2013-08-07 15:02:00,
2013-08-07 07:12:00,52.0,52.0,-100.00,North,354,1.0,3.0,100,0.02,,,0.03,1.000000,,2013-08-07 15:12:00,
2013-08-07 07:22:00,52.0,52.0,-100.00,North,354,1.0,3.0,100,0.02,,,0.03,1.000000,,2013-08-07 15:22:00,
2013-08-07 07:53:00,52.0,52.0,-100.00,NE,43,1.0,3.0,100,0.01,,,0.04,11.000000,,2013-08-07 15:53:00,
2013-08-07 08:02:00,52.0,52.0,-100.00,NE,43,1.0,3.0,100,0.01,,,0.04,11.000000,,2013-08-07 16:02:00,
2013-08-07 08:11:00,52.0,52.0,-100.00,NE,43,1.0,3.0,100,0.01,,,0.04,11.000000,,2013-08-07 16:11:00,
2013-08-07 08:22:00,52.0,52.0,-100.00,NE,43,1.0,3.0,100,0.01,,,0.04,11.000000,,2013-08-07 16:22:00,
2013-08-07 08:53:00,53.0,53.0,-100.00,SSE,160,1.0,2.0,100,0.00,,,0.04,23.000000,,2013-08-07 16:53:00,
2013-08-07 09:01:00,53.0,53.0,-100.00,SSE,160,1.0,2.0,100,0.00,,,0.04,23.000000,,2013-08-07 17:01:00,
2013-08-07 09:11:00,53.0,53.0,-100.00,SSE,160,1.0,2.0,100,0.00,,,0.04,23.000000,,2013-08-07 17:11:00,
2013-08-07 09:22:00,53.0,53.0,-100.00,SSE,160,1.0,2.0,100,0.00,,,0.04,23.000000,,2013-08-07 17:22:00,
2013-08-07 09:52:00,54.0,54.0,-100.00,West,280,1.0,2.0,100,0.01,,,0.05,39.000000,,2013-08-07 17:52:00,
2013-08-07 10:02:00,54.0,54.0,-100.00,West,280,1.0,2.0,100,0.01,,,0.05,39.000000,,2013-08-07 18:02:00,
2013-08-07 10:11:00,54.0,54.0,-100.00,West,280,1.0,2.0,100,0.01,,,0.05,39.000000,,2013-08-07 18:11:00,
2013-08-07 10:22:00,54.0,54.0,-100.00,West,280,1.0,2.0,100,0.01,,,0.05,39.000000,,2013-08-07 18:22:00,
2013-08-07 10:52:00,55.0,55.0,-100.00,North,8,1.0,4.0,100,0.00,,,0.05,57.000000,,2013-08-07 18:52:00,
2013-08-07 11:01:00,55.0,55.0,-100.00,North,8,1.0,4.0,100,0.00,,,0.05,57.000000,,2013-08-07 19:01:00,
2013-08-07 11:11:00,55.0,55.0,-100.00,North,8,1.0,4.0,100,0.00,,,0.05,57.000000,,2013-08-07 19:11:00,
2013-08-07 11:22:00,55.0,55.0,-100.00,North,8,1.0,4.0,100,0.00,,,0.05,57.000000,,2013-08-07 19:22:00,
2013-08-07 11:52:00,56.0,56.0,-100.00,ESE,113,1.0,2.0,100,0.01,,,0.06,59.000000,,2013-08-07 19:52:00,
2013-08-07 12:02:00,56.0,56.0,-100.00,ESE,113,1.0,2.0,100,0.01,,,0.06,59.000000,,2013-08-07 20:02:00,
2013-08-07 12:11:00,56.0,56.0,-100.00,ESE,113,1.0,2.0,100,0.01,,,0.06,59.000000,,2013-08-07 20:11:00,
2013-08-07 12:22:00,56.0,56.0,-100.00,ESE,113,1.0,2.0,100,0.01,,,0.06,59.000000,,2013-08-07 20:22:00,
2013-08-07 13:01:00,58.0,58.0,-100.00,SE,131,2.0,2.0,99,0.00,,,0.06,112.000000,,2013-08-07 21:01:00,
2013-08-07 13:11:00,58.0,58.0,-100.00,SE,131,2.0,2.0,99,0.00,,,0.06,112.000000,,2013-08-07 21:11:00,
2013-08-07 13:22:00,58.0,58.0,-100.00,SE,131,2.0,2.0,99,0.00,,,0.06,112.000000,,2013-08-07 21:22:00,
2013-08-07 13:52:00,60.0,58.0,-100.00,NE,41,2.0,4.0,94,0.00,,,0.06,151.000000,,2013-08-07 21:52:00,
2013-08-07 14:01:00,60.0,58.0,-100.00,NE,41,2.0,4.0,94,0.00,,,0.06,151.000000,,2013-08-07 22:01:00,
2013-08-07 14:12:00,60.0,58.0,-100.00,NE,41,2.0,4.0,94,0.00,,,0.06,151.000000,,2013-08-07 22:12:00,
2013-08-07 14:22:00,60.0,58.0,-100.00,NE,41,2.0,4.0,94,0.00,,,0.06,151.000000,,2013-08-07 22:22:00,
2013-08-07 14:52:00,61.0,57.0,-100.00,East,99,2.0,5.0,88,0.00,,,0.06,203.000000,,2013-08-07 22:52:00,
2013-08-07 15:01:00,61.0,57.0,-100.00,East,99,2.0,5.0,88,0.00,,,0.06,203.000000,,2013-08-07 23:01:00,
2013-08-07 15:11:00,61.0,57.0,-100.00,East,99,2.0,5.0,88,0.00,,,0.06,203.000000,,2013-08-07 23:11:00,
2013-08-07 15:22:00,61.0,57.0,-100.00,East,99,2.0,5.0,88,0.00,,,0.06,203.000000,,2013-08-07 23:22:00,
2013-08-07 15:52:00,60.0,57.0,-100.00,NNW,332,2.0,5.0,90,0.00,,,0.06,141.000000,,2013-08-07 23:52:00,
2013-08-07 16:01:00,60.0,57.0,-100.00,NNW,332,2.0,5.0,90,0.00,,,0.06,141.000000,,2013-08-08 00:01:00,
2013-08-07 16:11:00,60.0,57.0,-100.00,NNW,332,2.0,5.0,90,0.00,,,0.06,141.000000,,2013-08-08 00:11:00,
2013-08-07 16:22:00,60.0,57.0,-100.00,NNW,332,2.0,5.0,90,0.00,,,0.06,141.000000,,2013-08-08 00:22:00,
2013-08-07 16:52:00,59.0,56.0,-100.00,SW,231,0.0,3.0,90,0.00,,,0.06,87.000000,,2013-08-08 00:52:00,
2013-08-07 17:02:00,59.0,56.0,-100.00,SW,231,0.0,3.0,90,0.00,,,0.06,87.000000,,2013-08-08 01:02:00,
2013-08-07 17:11:00,59.0,56.0,-100.00,SW,231,0.0,3.0,90,0.00,,,0.06,87.000000,,2013-08-08 01:11:00,
2013-08-07 17:21:00,59.0,56.0,-100.00,SW,231,0.0,3.0,90,0.00,,,0.06,87.000000,,2013-08-08 01:21:00,
2013-08-07 17:52:00,59.0,58.0,-100.00,North,356,0.0,2.0,96,0.00,,,0.06,66.000000,,2013-08-08 01:52:00,
2013-08-07 18:02:00,59.0,58.0,-100.00,North,356,0.0,2.0,96,0.00,,,0.06,66.000000,,2013-08-08 02:02:00,
2013-08-07 18:11:00,59.0,58.0,-100.00,North,356,0.0,2.0,96,0.00,,,0.06,66.000000,,2013-08-08 02:11:00,
2013-08-07 18:22:00,59.0,58.0,-100.00,North,356,0.0,2.0,96,0.00,,,0.06,66.000000,,2013-08-08 02:22:00,
2013-08-07 18:52:00,59.0,58.0,-100.00,North,350,0.0,2.0,95,0.00,,,0.06,65.000000,,2013-08-08 02:52:00,
2013-08-07 19:01:00,59.0,58.0,-100.00,North,350,0.0,2.0,95,0.00,,,0.06,65.000000,,2013-08-08 03:01:00,
2013-08-07 19:12:00,59.0,58.0,-100.00,North,350,0.0,2.0,95,0.00,,,0.06,65.000000,,2013-08-08 03:12:00,
2013-08-07 19:21:00,59.0,58.0,-100.00,North,350,0.0,2.0,95,0.00,,,0.06,65.000000,,2013-08-08 03:21:00,
2013-08-07 19:52:00,58.0,57.0,-100.00,SSE,164,1.0,3.0,95,0.01,,,0.07,45.000000,,2013-08-08 03:52:00,
2013-08-07 20:01:00,58.0,57.0,-100.00,SSE,164,1.0,3.0,95,0.01,,,0.07,45.000000,,2013-08-08 04:01:00,
2013-08-07 20:11:00,58.0,57.0,-100.00,SSE,164,1.0,3.0,95,0.01,,,0.07,45.000000,,2013-08-08 04:11:00,
2013-08-07 20:22:00,58.0,57.0,-100.00,SSE,164,1.0,3.0,95,0.01,,,0.07,45.000000,,2013-08-08 04:22:00,
2013-08-07 20:53:00,56.0,55.0,-100.00,SW,227,0.0,2.0,97,0.00,,,0.07,19.000000,,2013-08-08 04:53:00,
2013-08-07 21:01:00,56.0,55.0,-100.00,SW,227,0.0,2.0,97,0.00,,,0.07,19.000000,,2013-08-08 05:01:00,
2013-08-07 21:11:00,56.0,55.0,-100.00,SW,227,0.0,2.0,97,0.00,,,0.07,19.000000,,2013-08-08 05:11:00,
2013-08-07 21:21:00,56.0,55.0,-100.00,SW,227,0.0,2.0,97,0.00,,,0.07,19.000000,,2013-08-08 05:21:00,
2013-08-07 21:52:00,54.0,54.0,-100.00,WSW,242,1.0,2.0,99,0.00,,,0.07,8.000000,,2013-08-08 05:52:00,
2013-08-07 22:01:00,54.0,54.0,-100.00,WSW,242,1.0,2.0,99,0.00,,,0.07,8.000000,,2013-08-08 06:01:00,
2013-08-07 22:11:00,54.0,54.0,-100.00,WSW,242,1.0,2.0,99,0.00,,,0.07,8.000000,,2013-08-08 06:11:00,
2013-08-07 22:21:00,54.0,54.0,-100.00,WSW,242,1.0,2.0,99,0.00,,,0.07,8.000000,,2013-08-08 06:21:00,
2013-08-07 23:01:00,53.0,53.0,-100.00,South,185,1.0,3.0,100,0.00,,,0.07,1.000000,,2013-08-08 07:01:00,
2013-08-07 23:12:00,53.0,53.0,-100.00,South,185,1.0,3.0,100,0.00,,,0.07,1.000000,,2013-08-08 07:12:00,
2013-08-07 23:22:00,53.0,53.0,-100.00,South,185,1.0,3.0,100,0.00,,,0.07,1.000000,,2013-08-08 07:22:00,
2013-08-07 23:53:00,52.0,52.0,-100.00,ESE,108,1.0,2.0,100,0.00,,,0.07,0.000000,,2013-08-08 07:53:00,